Location: Pine Mountain Observatory
(43.7910°N, 120.9377°W)
Time: 11:32:59
(UTC-07:00)

Explorer 11/Cluster Stage 4 - Pass Details

Date: 02 June 2019
Orbit: 467 x 1260 km, 28.8° (Epoch: 16 June)

Event Time Altitude Azimuth Distance (km) Brightness Sun altitude
Rises 23:31:44 0° 227° (SW) 4,192 10.1 -20.8°
Enters shadow 23:35:00 - 215° (SW) 3,331 9.5 -21.0°
Reaches altitude 10° 23:35:29 10° 212° (SSW) 3,216 - -21.0°
Maximum altitude 23:41:12 21° 168° (SSE) 2,403 - -21.4°
Drops below altitude 10° 23:46:36 10° 123° (ESE) 3,003 - -21.7°
Sets 23:49:57 0° 108° (ESE) 3,843 - -21.9°
